Flag for United Kingdom Weather past 2 weeks in Chester, England, United Kingdom

Now
52 °F

Rain showers. Scattered clouds.


Feels Like: 51 °F
Forecast: 45 / 65 °F
Wind: 3 mph from North

Location: Hawarden Airport

Current Time: Aug 20, 2014 at 8:54:37 AM

Latest Report: Aug 20, 2014 at 8:20 AM


Visibility: N/A

Pressure: 30.04 "Hg

Humidity: 88%

Dew point: 48 °F

Location of ChesterLocation

Historic Weather in Chester — Graph

°F

Chester temperature yesterday

Maximum temperature yesterday: 61 °F (at 2:50 PM)
Minimum temperature yesterday: 50 °F (at 6:20 AM)
Average temperature yesterday: 56 °F

Past Weeks' High & Low Weather Summary

 TemperatureHumidityPressure
High77 °F (Aug 8, 3:20 PM)100% (Aug 6, 6:50 AM)30.15 "Hg (Aug 6, 6:50 AM)
Low50 °F (Aug 19, 6:20 AM)47% (Aug 8, 3:20 PM)29.30 "Hg (Aug 10, 9:50 AM)
Average63 °F71%29.81 "Hg
* Reported Aug 5 7:20 AM — Aug 20 7:20 AM, Chester, Weather by CustomWeather, © 2014

Note: Actual official high and low records may vary slightly from our data, if they occured in-between our weather recording intervals... More about our weather records

Advertising

Chester weather history for previous 24 hours

 ConditionsComfort  
Time TempWeatherWind HumidityBarometerVisibility
7:20 AM
Aug 20
52 °FScattered showers. Passing clouds.9 mph88%30.01 "HgN/A
6:50 AM52 °FSprinkles. Passing clouds.12 mph88%30.01 "HgN/A
6:20 AM50 °FPassing clouds.10 mph88%30.01 "HgN/A
5:50 AM50 °FPassing clouds.10 mph88%30.01 "HgN/A
8:50 PM
Aug 19
54 °FPassing clouds.9 mph72%30.01 "HgN/A
8:20 PM55 °FPassing clouds.9 mph72%30.01 "HgN/A
7:50 PM55 °FPassing clouds.9 mph67%30.01 "HgN/A
7:20 PM59 °FPassing clouds.12 mph63%30.01 "HgN/A
6:50 PM59 °FPassing clouds.13 mph63%29.98 "HgN/A
6:20 PM59 °FPassing clouds.14 mph63%29.98 "HgN/A
5:50 PM59 °FScattered clouds.14 mph63%29.98 "HgN/A
5:20 PM61 °FScattered clouds.13 mph59%29.98 "HgN/A
4:50 PM61 °FScattered clouds.15 mph59%29.98 "HgN/A
4:20 PM59 °FScattered clouds.14 mph63%29.98 "HgN/A
3:50 PM59 °FScattered clouds.14 mph63%29.95 "HgN/A
3:20 PM61 °FScattered clouds.15 mph59%29.95 "HgN/A
2:50 PM61 °FScattered clouds.16 mph55%29.95 "HgN/A
2:20 PM59 °FScattered clouds.16 mph68%29.95 "HgN/A
1:50 PM59 °FScattered clouds.13 mph72%29.95 "HgN/A
1:20 PM57 °FScattered showers. Scattered clouds.13 mph77%29.95 "HgN/A
12:50 PM57 °FRain showers. Scattered clouds.14 mph77%29.95 "HgN/A
12:20 PM54 °FScattered showers. Scattered clouds.12 mph82%29.95 "HgN/A
11:50 AM55 °FSprinkles. Scattered clouds.9 mph77%29.92 "HgN/A
11:20 AM57 °FSprinkles. Scattered clouds.15 mph72%29.92 "HgN/A
10:50 AM55 °FScattered showers. Scattered clouds.14 mph72%29.92 "HgN/A
10:20 AM57 °FScattered showers. Scattered clouds.13 mph72%29.92 "HgN/A
9:50 AM57 °FScattered showers. Scattered clouds.15 mph72%29.89 "HgN/A
9:20 AM54 °FScattered showers. Scattered clouds.12 mph82%29.89 "HgN/A
8:50 AM52 °FScattered showers. Scattered clouds.10 mph94%29.89 "HgN/A
8:20 AM52 °FScattered showers. Scattered clouds.12 mph88%29.89 "HgN/A
Weather by CustomWeather, © 2014

See weather overviewHow to use our weather pages